Hourly Weather Roundup
Issued by NWS Central Illinois

Home | Current Version | Previous Version | Text Only | Print | Product List | Glossary On
Versions: 1 2 3 4 5 6 7 8 9 10 11 12 13 14 15 16 17 18 19 20 21 22 23 24 25 26 27 28 29 30 31 32 33 34 35 36 37 38 39 40 41 42 43 44 45 46 47 48 49 50
500
NZUS43 KILX 220810
HWRILX

AREA WEATHER ROUNDUP
NATIONAL WEATHER SERVICE, LINCOLN IL
200 AM CST SUN JAN 22 2017


CITY           SKY/WX    TMP DP  RH WIND       PRES   REMARKS
BLOOMINGTON    FOG       38  37  97 N9        29.58S VSB 1/4 WCI  31
CHAMPAIGN      CLEAR     48  43  82 NE8       29.55F
DANVILLE       HVY RAIN  46  45  97 NE3       29.53F
DECATUR        CLEAR     41  40  96 NE9       29.53F
EFFINGHAM      CLEAR     50  50 100 N3        29.51F
FLORA          CLEAR     51  49  91 N5        29.50F
GALESBURG      FOG       31  31 100 CALM      29.58S VSB 1/4
JACKSONVILLE   CLEAR     44  41  91 N7        29.54S
LACON          CLOUDY    39  39 100 CALM      29.58F FOG
LAWRENCEVILLE  CLEAR     48  47  96 NE7       29.50F
LITCHFIELD     CLEAR     50  42  73 NE12      29.50S
$$


CITY           SKY/WX    TMP DP  RH WIND       PRES   REMARKS
LINCOLN        PTCLDY    44  43  97 N8        29.56R
MACOMB         FOG       35  35 100 NE3       29.59F VSB 1/4
MATTOON        FOG       46  45  96 NE6       29.51F VSB 3/4
MT CARMEL AP   CLEAR     50  46  87 NE8       29.49F
OLNEY-NOBLE AP PTCLDY    50  50 100 CALM      29.50F
PARIS          CLEAR     45  45 100 E3        29.54F
PEORIA         FOG       40  40 100 NE6       29.58F VSB 1/4
PONTIAC        RAIN      40  40 100 N3        29.59S VSB 1/4
RANTOUL        CLEAR     45  43  93 NE5       29.56S
SPRINGFIELD    PTCLDY    44  41  89 N8        29.54F
TAYLORVILLE    CLEAR     49  42  77 NE9       29.52F
$$

...REGIONAL REPORTS...


CITY           SKY/WX    TMP DP  RH WIND       PRES   REMARKS
CHICAGO O`HARE CLOUDY    40  40 100 CALM      29.58S FOG
KANKAKEE       FOG       38  38  97 CALM      29.59S VSB 1/4
MOLINE         CLOUDY    35  32  88 CALM      29.59R FOG
MOUNT STERLING FOG       41  41  99 NE9       29.55S VSB 1
MOUNT VERNON   CLEAR     44  43  96 NE3       29.49F
PITTSFIELD     CLEAR     44  43  96 N7        29.54F
QUINCY         CLEAR     40  39  97 NE9       29.54S FOG     WCI  34
ROCKFORD       FOG       35  35 100 S5        29.59R VSB 1/4 WCI  31
$$


CITY           SKY/WX    TMP DP  RH WIND       PRES   REMARKS
BURLINGTON     CLOUDY    35  35 100 N6        29.57F FOG     WCI  30
CEDAR RAPIDS   FOG       32  31  96 CALM      29.56S VSB 1/4
DES MOINES     FOG       31  31 100 W3        29.59R VSB 1/4
KIRKSVILLE     CLOUDY    40  39  97 N7        29.56F FOG
OTTUMWA        FOG       30  28  92 CALM      29.57R VSB 1/4
ST LOUIS       MOCLDY    51  41  68 NE5       29.50S
$$


CITY           SKY/WX    TMP DP  RH WIND       PRES   REMARKS
TERRE HAUTE    CLEAR     46  44  93 N6        29.53F
EVANSVILLE     PTCLDY    51  46  83 E3        29.51S
INDIANAPOLIS   PTCLDY    49  47  93 E6        29.56F
LAFAYETTE      FOG       46  46 100 CALM      29.55F VSB 1/2
MADISON        FOG       40  39  97 CALM      29.57S VSB 1/4
MILWAUKEE      MOCLDY    41  38  89 SW5       29.58R
$$






USA.gov is the U.S. government's official web portal to all federal, state and local government web resources and services.